Location: Garshuizen
(53.3675°N, 6.7248°E)
Time: 08:16:35
(UTC+00:00)

Cosmos 1602 Rocket - Pass Details

Date: 15 May 2026
Orbit: 597 x 625 km, 82.5° (Epoch: 5 June)

Event Time Altitude Azimuth Distance (km) Brightness Sun altitude
Rises 20:37:55 0° 349° (N) 2,861 8.2 -8.7°
Reaches altitude 10° 20:40:08 10° 350° (N) 1,956 7.2 -8.9°
Maximum altitude 20:44:27 83° 78° (ENE) 615 3.5 -9.3°
Enters shadow 20:48:44 10° 168° (SSE) 1,934 5.5 -9.7°
